Regional Weather Roundup
Issued by NWS

Home | Current Version | Previous Version | Text Only | Print | Product List | Glossary Off
Versions: 1 2 3 4 5 6 7 8 9 10 11 12 13 14 15 16 17 18 19 20 21 22 23 24 25 26 27 28 29 30 31 32 33 34 35 36 37 38 39 40 41 42 43 44 45 46 47 48 49 50

000
ASUS43 KMKX 270810
RWRWI

WISCONSIN REGIONAL WEATHER ROUNDUP
NATIONAL WEATHER SERVICE MILWAUKEE/SULLIVAN WI
300 AM CDT FRI MAR 27 2015

NOTE: "FAIR" INDICATES FEW OR NO CLOUDS BELOW 12,000 FEET WITH NO
SIGNIFICANT WEATHER AND/OR OBSTRUCTIONS TO VISIBILITY.

WIZ001-002-006>008-014>016-023>028-270900-
NORTHWEST WISCONSIN

CITY           SKY/WX    TMP DP  RH WIND       PRES   REMARKS
SUPERIOR ARPT  CLEAR     19   6  56 N9        30.28R WCI   8
ASHLAND        CLEAR     15   8  73 N8        30.24S WCI   4
HAYWARD        CLEAR     13   8  81 CALM      30.20S
SIREN          CLEAR     14   4  62 N5        30.25R WCI   7
CUMBERLAND     CLEAR     19   5  53 N6        30.20S WCI  11
RICE LAKE      CLEAR     18   9  67 N6        30.22S WCI  10
CHETEK         CLEAR     19   7  59 CALM      30.21R
LADYSMITH      CLEAR     18   8  64 N8        30.19S WCI   8
EAU CLAIRE     CLEAR     15   7  70 CALM      30.20S
MENOMONIE      CLEAR     21   9  59 CALM      30.22R
NEW RICHMOND   CLEAR     19   7  61 N7        30.23S WCI   9
OSCEOLA        CLEAR     20   7  56 N5        30.27S WCI  13
$$

WIZ003>005-009-010-017-018-270900-
NORTH CENTRAL WISCONSIN

CITY           SKY/WX    TMP DP  RH WIND       PRES   REMARKS
MANITOWISH WTR LGT SNOW  13  10  88 CALM      30.13S
ARBOR VITAE    LGT SNOW  14  11  87 CALM      30.13S
WOODRUFF       LGT SNOW  14  11  87 CALM      30.13S
RHINELANDER    PTCLDY    12   7  80 N3        30.13R
EAGLE RIVER    PTCLDY    10   5  79 N3        30.12S
LAND O LAKES   PTCLDY    11   7  82 N7        30.12F WCI   1
PHILLIPS       CLOUDY    15   8  72 NW3       30.14S
TOMAHAWK       CLEAR      9   5  82 CALM      30.15R
MEDFORD        MOCLDY    10   5  82 CALM      30.14S
MERRILL        PTCLDY    11   5  77 CALM      30.14S
$$

WIZ029-030-035-036-043>047-270900-
CENTRAL WISCONSIN

CITY           SKY/WX    TMP DP  RH WIND       PRES   REMARKS
WAUSAU         CLOUDY    16   6  65 NW7       30.13S WCI   6
MOSINEE        CLOUDY    18  10  73 NW5       30.15F WCI  11
MARSHFIELD     CLEAR     13   7  77 NW5       30.15S WCI   5
STEVENS POINT  CLEAR      8   3  80 CALM      30.16S
WAUPACA        CLEAR     18   7  62 CALM      30.17S
WAUTOMA        CLEAR     18   5  56 CALM      30.17S
WISC RAPIDS    CLEAR     15   5  64 CALM      30.18S
CAMP DOUGLAS   CLEAR     15   9  78 NW3       30.18S
$$

WIZ011>013-019>022-031-037>040-048>050-270900-
NORTHEAST WISCONSIN

CITY           SKY/WX    TMP DP  RH WIND       PRES   REMARKS
ANTIGO         CLOUDY    12   7  80 N6        30.13R WCI   2
SHAWANO        FAIR      17   7  63 NW6       30.17S WCI   9
OCONTO         CLEAR     17   8  67 NW5       30.16S WCI   9
STURGEON BAY   CLEAR     16   7  67 N9        30.15S WCI   4
GREEN BAY      CLEAR     20   9  62 N8        30.16S WCI  10
MANITOWOC      CLEAR     19   9  65 N13       30.14S WCI   6
APPLETON       CLEAR     18   5  57 N6        30.15S WCI   9
CLINTONVILLE   CLEAR     19   5  53 NW5       30.17R WCI  13
OSHKOSH        CLEAR     18   5  57 N9        30.15R WCI   7
$$

WIZ032>034-041-042-053>061-270900-
SOUTHWEST WISCONSIN

CITY           SKY/WX    TMP DP  RH WIND       PRES   REMARKS
LA CROSSE      CLEAR     23   8  52 NE7       30.21R WCI  15
SPARTA         CLEAR     16   9  74 CALM      30.21R
VIROQUA        CLEAR     20   8  61 NE12      30.16R WCI   8
BOSCOBEL       CLEAR     25   8  48 N10       30.18S WCI  15
PRAIRIE DU CHI CLEAR     27  11  50 NE12      30.18R WCI  17
PLATTEVILLE    PTCLDY    25  15  65 N15       30.13R WCI  13
$$

WIZ056-057-062-063-064-067-068-270900-
SOUTH CENTRAL WISCONSIN

CITY           SKY/WX    TMP DP  RH WIND       PRES   REMARKS
REEDSBURG      CLEAR     20   5  53 N7        30.16S WCI  11
BARABOO/DELLS  CLEAR     19   6  55 N8        30.16R WCI   9
LONE ROCK      CLEAR     22   9  57 NE9       30.18R WCI  12
MINERAL POINT  CLEAR     25  10  54 N9        30.13R WCI  15
MADISON        CLEAR     21   7  54 N8        30.14R WCI  11
MIDDLETON      CLEAR     24   8  52 N10       30.15S WCI  13
WATERTOWN      CLOUDY    22  13  67 N13G20    30.11S WCI  10
MONROE         CLEAR     23  14  68 N12       30.11S WCI  12
JANESVILLE     CLEAR     27  16  63 N8        30.11S WCI  18
$$

WIZ051-052-058>065-066-070>072-270900-
SOUTHEAST WISCONSIN

CITY           SKY/WX    TMP DP  RH WIND       PRES   REMARKS
MILWAUKEE      MOCLDY    25  17  72 N10       30.10S WCI  15
WAUKESHA       LGT SNOW  23  19  86 NE6       30.10S WCI  16
MILWAUKEE/TIMM LGT SNOW  25  19  80 N10       30.11S WCI  15
RACINE         CLOUDY    26  20  77 N14       30.10F WCI  14
BURLINGTON     CLOUDY    26  17  69 NW9       30.09S WCI  16
KENOSHA        LGT SNOW  26  22  84 N10       30.08F FOG     WCI  16
FOND DU LAC    MOCLDY    20   4  50 N15       30.15R WCI   6
SHEBOYGAN      PTCLDY    20   4  50 N14       30.12F WCI   7
WEST BEND      PTCLDY    19   5  53 N12       30.11S WCI   7
JUNEAU         CLOUDY    21   8  57 N18       30.13S WCI   6
$$

LSZ147-162-270900-
LAKE SUPERIOR

STATION/POSITION TIME  TEMP    WIND        PRES    WAVE
                       AIR SEA DIR/SP/G            HT/PER
                 (UTC) (F)     (DEG/KT/KT) (MB)    (FT/S)
DEVILS ISLAND    0800   21      20/ 12/ 14 1025.6S
PORT WING        0740   22      40/ 15/ 20 1024.7R
$$

LMZ867-665-643>646-270900-
LAKE MICHIGAN

STATION/POSITION TIME  TEMP    WIND        PRES    WAVE
                       AIR SEA DIR/SP/G            HT/PER
                 (UTC) (F)     (DEG/KT/KT) (MB)    (FT/S)
NORTHPORT PIER   0710   20     360/ 15/ 22 1020.3S
SISTER BAY       0702   18      10/ 12/ 14   N/A
KEWAUNEE LAKESHO 0700   19     350/  5/ 11 1019.8F
SHEBOYGAN LAKESH 0800   21     350/ 24/ 29 1021.2F
PORT WASHINGTON  0740   22     360/  7/ 14 1021.0R
MILWAUKEE LAKESH 0700   26     340/ 11/ 14   N/A
KENOSHA   LAKESH 0800   27      10/ 20/ 25 1018.6S
$$

TC  - TEMPERATURE IN CELSIUS
VSB - VISIBILITY IN STATUTE MILES
WCI - WIND CHILL INDEX
HX  - HEAT INDEX



USA.gov is the U.S. government's official web portal to all federal, state and local government web resources and services.